PDT,Max TemperatureF,Mean TemperatureF,Min TemperatureF,Max Dew PointF,MeanDew PointF,Min DewpointF,Max Humidity, Mean Humidity, Min Humidity, Max Sea Level PressureIn, Mean Sea Level PressureIn, Min Sea Level PressureIn, Max VisibilityMiles, Mean VisibilityMiles, Min VisibilityMiles, Max Wind SpeedMPH, Mean Wind SpeedMPH, Max Gust SpeedMPH,PrecipitationIn, CloudCover, Events, WindDirDegrees
2013-3-1,57,52,46,42,34,28,74,51,38,30.39,30.32,30.25,10,10,10,6,3,,0.00,0,,339
2013-3-2,55,50,45,34,28,22,63,44,33,30.24,30.15,30.05,10,10,10,15,6,21,0.00,2,,170
2013-3-3,44,40,37,39,37,33,100,91,65,30.10,30.05,30.01,10,8,0,10,4,,0.17,7,Fog-Rain,166
2013-3-4,48,42,37,41,35,27,100,79,48,30.09,30.05,29.99,10,9,1,10,4,,0.00,4,,158
2013-3-5,42,38,33,37,34,31,93,86,70,30.05,29.90,29.78,10,9,2,22,12,32,0.00,7,Snow,170
2013-3-6,33,30,28,31,28,27,100,95,81,30.03,29.93,29.75,10,3,0,25,15,41,0.66,8,Fog-Snow,183
2013-3-7,35,32,28,31,28,21,96,85,70,30.00,29.88,29.83,10,8,1,9,3,,0.02,7,Snow,221
2013-3-8,43,36,30,32,28,22,96,80,43,29.98,29.88,29.78,10,5,0,10,6,18,0.45,6,Fog-Rain-Snow,13
2013-3-9,48,39,30,28,15,6,82,43,18,30.32,30.20,29.98,10,10,10,12,5,18,0.00,1,,25
2013-3-10,57,47,37,40,17,2,74,33,14,30.30,30.25,30.20,10,10,10,12,6,25,0.00,0,,11
2013-3-11,60,52,46,39,21,5,53,31,16,30.21,30.14,30.07,10,10,10,7,4,,0.00,0,,6
2013-3-12,62,56,51,43,31,21,66,42,25,30.13,30.09,30.05,10,10,10,7,3,,0.00,0,,51
2013-3-13,63,57,51,37,31,22,55,39,22,30.16,30.13,30.11,10,10,10,12,5,,0.00,0,,144
2013-3-14,63,58,53,36,27,19,51,33,24,30.13,30.11,30.08,10,10,10,14,5,23,0.00,0,,152
2013-3-15,61,56,50,40,30,21,61,41,23,30.09,30.05,30.01,10,10,10,9,2,,0.00,0,,159
2013-3-16,57,50,44,35,22,2,57,35,13,30.04,30.00,29.95,10,10,10,9,5,17,0.00,0,,271
2013-3-17,53,46,39,34,24,10,55,45,22,30.06,30.03,30.00,10,10,10,8,2,,0.00,0,,84
2013-3-18,54,48,43,31,22,12,56,37,27,30.06,30.03,29.99,10,10,10,7,3,,0.00,3,,120
2013-3-19,52,44,37,40,35,28,100,80,48,30.17,30.10,30.03,10,6,1,16,5,25,0.60,7,Rain,162
2013-3-20,41,37,33,41,38,33,100,99,93,30.13,30.09,30.03,3,1,0,23,12,32,2.43,8,Fog-Rain-Snow,169
2013-3-21,48,41,34,39,36,22,100,88,49,30.09,30.04,29.97,10,6,0,10,6,,0.00,4,Fog-Rain,224
2013-3-22,51,43,36,20,2,-13,43,22,11,30.04,29.99,29.94,10,10,10,9,6,17,0.00,0,,11
2013-3-23,52,44,37,24,9,-10,49,26,9,30.06,30.03,30.00,10,10,10,10,4,16,0.00,0,,32
2013-3-24,55,48,42,33,27,20,60,44,37,30.05,30.00,29.96,10,10,10,8,3,,0.00,0,,4
2013-3-25,55,48,42,38,31,27,81,56,37,30.03,29.94,29.88,10,10,10,14,5,20,0.00,3,,168
2013-3-26,48,44,41,39,35,27,82,70,55,30.02,29.95,29.86,10,10,10,12,7,22,0.00,6,Rain,184
2013-3-27,53,45,39,43,38,34,100,82,56,30.06,29.99,29.90,10,7,0,18,3,24,0.00,6,Fog,173
2013-3-28,48,42,39,45,40,37,100,91,79,30.15,30.08,29.95,10,7,0,13,6,21,0.05,7,Fog-Rain,163
2013-3-29,61,52,43,40,35,28,82,54,35,30.12,30.09,30.04,10,10,10,12,4,,0.00,0,,110
2013-3-30,62,53,46,44,38,31,90,59,33,30.04,29.99,29.92,10,10,4,9,3,,0.16,4,Rain,105
2013-3-31,45,40,35,45,38,34,100,94,76,30.11,30.06,29.93,10,6,0,14,5,24,0.77,7,Fog-Rain,186